[[{"header":{"parameterUnit":"m.s-1","parameterCategory":1,"la1":30.2991,"la2":30.254,"lo1":-89.0895,"lo2":-89.0444,"dy":0.0017,"dx":0.0017,"nx":28,"ny":28,"refTime":"2025-04-29T09:00:00:Z","depth":0,"parameterNumber":2,"parameterNumberName":"U-component_of_WINDS"},"data":[0,0,0,0,0,0,0,0,0,0,0,0,0,0,0,0,0,0,0,0,0,0,0,0,0,0,0,0,0,0,0,0,0,0,0,0,0,0,0,0,0,0,0,0,0,0,0,0,0,0,0,0,0,0,0,0,0,0,-2.6291,-2.6291,0,-2.635,-2.6351,-2.6351,-2.635,-2.6349,-2.6349,-2.6348,-2.6404,-2.6407,-2.6409,0,0,0,0,0,0,0,0,0,0,0,0,0,-2.6174,-2.6176,-2.6291,-2.6291,-2.6292,-2.635,-2.6351,-2.6351,-2.635,-2.6349,-2.6348,-2.6347,-2.6404,-2.6406,-2.6409,0,0,0,0,0,0,0,0,0,0,0,0,0,-2.6228,-2.6177,-2.629,-2.6299,-2.63,-2.635,-2.6351,-2.6352,-2.635,-2.6349,-2.6348,-2.6347,-2.6403,-2.6406,-2.6409,-2.6454,0,0,-2.642,-2.6421,0,0,0,0,0,0,0,0,-2.6225,-2.6232,-2.6297,-2.6298,-2.63,-2.6342,-2.633,-2.6386,-2.6351,-2.6331,-2.6348,-2.6346,-2.6384,-2.6389,-2.6403,-2.6457,-2.6459,-2.642,-2.6422,-2.6424,-2.6424,0,0,0,0,0,0,0,-2.6221,-2.623,-2.6314,-2.6297,-2.6299,-2.6298,-2.6305,-2.6341,-2.6363,-2.6333,-2.6333,-2.634,-2.6385,-2.6399,-2.6404,-2.646,-2.642,-2.6423,-2.6425,-2.6426,-2.6554,-2.6555,0,0,0,0,0,0,-2.6216,-2.6226,-2.6312,-2.6316,-2.6259,-2.6301,-2.6309,-2.6329,-2.6363,-2.6367,-2.6341,-2.634,-2.6394,-2.64,-2.6406,-2.646,-2.6424,-2.6427,-2.6429,-2.6552,-2.6554,-2.6556,0,0,0,0,0,0,-2.6214,-2.6224,-2.631,-2.6271,-2.6282,-2.6305,-2.6328,-2.6331,-2.6345,-2.6369,-2.6373,-2.6352,-2.6394,-2.6401,-2.6442,-2.6462,-2.6428,-2.6431,-2.6551,-2.6553,-2.6555,-2.6568,0,0,0,0,0,0,-2.621,-2.6223,-2.624,-2.6272,-2.6284,-2.6346,-2.6329,-2.6333,-2.6352,-2.6351,-2.6381,-2.6384,-2.6393,-2.6437,-2.6446,-2.6466,-2.6434,-2.6549,-2.6552,-2.6554,-2.6566,-2.657,-2.6574,0,0,0,0,0,-2.6206,-2.624,-2.6241,-2.6251,-2.6307,-2.6347,-2.6354,-2.6364,-2.6353,-2.6371,-2.6386,-2.6383,-2.6459,-2.6442,-2.6451,-2.6472,-2.6548,-2.6551,-2.6554,-2.6564,-2.6569,-2.6574,0,0,0,0,0,0,-2.6208,-2.6245,-2.6246,-2.6292,-2.6316,-2.6346,-2.6368,-2.637,-2.6397,-2.6394,-2.6406,-2.6413,-2.6454,-2.6468,-2.6447,-2.6518,-2.6502,-2.6507,-2.6506,-2.6512,-2.6516,-2.651,-2.6437,0,0,0,0,0,-2.6215,-2.6246,-2.6275,-2.6313,-2.6325,-2.6345,-2.6363,-2.637,-2.6395,-2.6405,-2.6423,-2.6447,-2.6477,-2.6495,-2.6524,-2.6569,-2.6575,-2.6589,-2.6593,-2.6596,-2.6599,-2.6624,-2.663,-2.6566,-2.6566,-2.6566,0,0,-2.6227,-2.6251,-2.6269,-2.6314,-2.6334,-2.6364,-2.6354,-2.6386,-2.6409,-2.6409,-2.6449,-2.6464,-2.6492,-2.6536,-2.6556,-2.6548,-2.6619,-2.66,-2.6602,-2.6604,-2.6628,-2.6634,-2.664,-2.6568,-2.6567,-2.6567,0,0,-2.6265,-2.6287,-2.632,-2.6342,-2.6373,-2.6386,-2.6394,-2.6425,-2.6435,-2.6477,-2.6478,-2.6505,-2.6555,-2.6575,-2.6591,-2.664,-2.6638,-2.6649,-2.6669,-2.6693,-2.6698,-2.6703,-2.6719,-2.6725,-2.6653,-2.6653,-2.6653,0,-2.6276,-2.6323,-2.6337,-2.6371,-2.639,-2.6395,-2.6429,-2.6448,-2.6486,-2.6499,-2.6491,-2.6555,-2.6574,-2.6623,-2.6635,-2.6649,-2.6658,-2.6644,-2.6697,-2.6702,-2.6706,-2.6721,-2.6728,-2.6654,-2.6654,-2.6654,-2.6654,0,-2.6334,-2.6367,-2.6391,-2.6429,-2.6452,-2.6485,-2.6504,-2.6525,-2.6531,-2.6545,-2.6587,-2.661,-2.6644,-2.6656,-2.6661,-2.6706,-2.67,-2.6695,-2.6679,-2.6713,-2.6728,-2.6734,-2.6656,-2.6655,-2.6655,-2.6655,0,0,-2.6371,-2.642,-2.6428,-2.6446,-2.6483,-2.6508,-2.6542,-2.6576,-2.6594,-2.6621,-2.6649,-2.6693,-2.6689,-2.6708,-2.6716,-2.6737,-2.6774,-2.6729,-2.673,-2.6735,-2.6823,-2.6825,-2.6832,-2.6774,-2.6775,-2.6776,-2.682,0,-2.6412,-2.6473,-2.6488,-2.654,-2.657,-2.6577,-2.6607,-2.6632,-2.6647,-2.6674,-2.6691,-2.6721,-2.6714,-2.6725,-2.6748,-2.6764,-2.6791,-2.6762,-2.6798,-2.68,-2.6789,-2.684,-2.6842,-2.6882,-2.6826,-2.6827,-2.6828,0,-2.6466,-2.6496,-2.6552,-2.6585,-2.6599,-2.6625,-2.6658,-2.6685,-2.6714,-2.6724,-2.6746,-2.6753,-2.6788,-2.6773,-2.6821,-2.6801,-2.6818,-2.6829,-2.683,-2.6832,-2.6814,-2.6841,-2.6895,-2.69,-2.6837,-2.6837,-2.6836,0,-2.6486,-2.6541,-2.6581,-2.6597,-2.6637,-2.6656,-2.6673,-2.6701,-2.6722,-2.6751,-2.6764,-2.6797,-2.6814,-2.6839,-2.6853,-2.6841,-2.6901,-2.6887,-2.6908,-2.6907,-2.6917,-2.6916,-2.6973,-2.6932,-2.6932,-2.6932,-2.6932,0,-2.6528,-2.6561,-2.6591,-2.6615,-2.6653,-2.667,-2.6707,-2.6725,-2.675,-2.6778,-2.6786,-2.6811,-2.6831,-2.6859,-2.6871,-2.6909,-2.6917,-2.6925,-2.6927,-2.6923,-2.6921,-2.6931,-2.6928,-2.6933,-2.6933,-2.6933,-2.6933,0,-2.6554,-2.6576,-2.662,-2.6656,-2.6666,-2.6692,-2.6723,-2.6747,-2.6763,-2.6798,-2.6807,-2.6833,-2.6867,-2.6885,-2.6927,-2.6935,-2.6977,-2.6979,-2.6967,-2.6968,-2.6988,-2.6985,-2.7051,-2.706,-2.7015,-2.7015,-2.7016,0,-2.6578,-2.6604,-2.6644,-2.6664,-2.6683,-2.6714,-2.6736,-2.6755,-2.6777,-2.6813,-2.6832,-2.6867,-2.6896,-2.695,-2.6971,-2.7004,-2.7005,-2.7027,-2.701,-2.7005,-2.7003,-2.7001,-2.7003,-2.7028,-2.7029,-2.7029,-2.7029,0,-2.6618,-2.6628,-2.6659,-2.6695,-2.672,-2.6749,-2.6777,-2.6792,-2.6816,-2.684,-2.6876,-2.6898,-2.6943,-2.6977,-2.7012,-2.7029,-2.7033,-2.7035,-2.7041,-2.7035,-2.7027,-2.703,-2.6973,-2.7032,-2.7032,-2.7032,-2.7032,-2.7032,-2.6643,-2.6667,-2.6699,-2.6733,-2.6757,-2.6784,-2.6808,-2.6829,-2.686,-2.6898,-2.6908,-2.6945,-2.6975,-2.7022,-2.7041,-2.707,-2.7066,-2.7075,-2.7077,-2.7079,-2.7079,-2.7025,-2.7077,-2.7077,-2.7077,-2.7077,-2.7077,0,-2.6682,-2.6704,-2.6736,-2.6776,-2.6803,-2.6807,-2.6839,-2.6861,-2.6894,-2.6923,-2.6952,-2.6993,-2.7027,-2.7053,-2.7087,-2.7106,-2.7108,-2.7114,-2.7111,-2.7115,-2.7081,-2.7072,-2.7111,-2.7111,-2.7111,-2.7111,-2.7111,-2.7111,-2.6705,-2.6745,-2.6759,-2.6812,-2.6833,-2.6871,-2.6889,-2.6913,-2.6936,-2.6982,-2.7011,-2.7029,-2.7056,-2.7093,-2.7124,-2.7131,-2.7142,-2.7148,-2.7154,-2.7121,-2.7117,-2.7114,-2.7105,-2.715,-2.7151,-2.7185,-2.7186,-2.7186]},{"header":{"parameterUnit":"m.s-1","parameterCategory":1,"la1":30.2991,"la2":30.254,"lo1":-89.0895,"lo2":-89.0444,"dy":0.0017,"dx":0.0017,"nx":28,"ny":28,"refTime":"2025-04-29T09:00:00:Z","depth":0,"parameterNumber":3,"parameterNumberName":"V-component_of_WINDS"},"data":[0,0,0,0,0,0,0,0,0,0,0,0,0,0,0,0,0,0,0,0,0,0,0,0,0,0,0,0,0,0,0,0,0,0,0,0,0,0,0,0,0,0,0,0,0,0,0,0,0,0,0,0,0,0,0,0,0,0,3.4791,3.4792,0,3.4819,3.4819,3.4819,3.4885,3.4886,3.4887,3.4889,3.4909,3.4908,3.4907,0,0,0,0,0,0,0,0,0,0,0,0,0,3.479,3.479,3.4791,3.4792,3.4792,3.4818,3.4819,3.4819,3.4884,3.4886,3.4888,3.4889,3.4909,3.4908,3.4907,0,0,0,0,0,0,0,0,0,0,0,0,0,3.4801,3.479,3.4791,3.4828,3.4831,3.4818,3.4819,3.4819,3.4884,3.4886,3.4888,3.489,3.491,3.4908,3.4907,3.4858,0,0,3.4904,3.4903,0,0,0,0,0,0,0,0,3.48,3.4801,3.4822,3.4825,3.4829,3.4851,3.4826,3.4832,3.4884,3.4864,3.4889,3.4891,3.4887,3.4888,3.4888,3.4859,3.486,3.4904,3.4903,3.4903,3.4902,0,0,0,0,0,0,0,3.4799,3.48,3.4802,3.4822,3.4827,3.4841,3.4845,3.4827,3.4863,3.4866,3.4871,3.4873,3.489,3.4889,3.4889,3.4861,3.4904,3.4903,3.4902,3.4902,3.4795,3.4793,0,0,0,0,0,0,3.4794,3.4799,3.4801,3.4803,3.482,3.4839,3.4844,3.4841,3.4864,3.4869,3.4871,3.4876,3.489,3.4891,3.489,3.4836,3.4903,3.4901,3.4901,3.4797,3.4794,3.4792,0,0,0,0,0,0,3.4794,3.4794,3.48,3.4802,3.4804,3.4837,3.4834,3.4841,3.4841,3.4868,3.4874,3.4865,3.4892,3.4892,3.4867,3.4837,3.4901,3.49,3.48,3.4796,3.4793,3.4726,0,0,0,0,0,0,3.4794,3.4793,3.4776,3.4801,3.4804,3.4777,3.4832,3.484,3.484,3.4846,3.4864,3.4869,3.4894,3.4868,3.4866,3.4837,3.4899,3.4802,3.4798,3.4794,3.4731,3.4721,3.4712,0,0,0,0,0,3.4793,3.4754,3.4775,3.4775,3.4783,3.4775,3.4777,3.4808,3.4837,3.4819,3.4837,3.4868,3.4841,3.4865,3.4863,3.4833,3.4804,3.4799,3.4795,3.4735,3.4723,3.4712,0,0,0,0,0,0,3.4721,3.4758,3.4781,3.4749,3.4759,3.4787,3.4765,3.4794,3.4794,3.4799,3.4837,3.484,3.481,3.4819,3.4845,3.4788,3.4828,3.4822,3.4783,3.4772,3.4763,3.4761,3.4898,0,0,0,0,0,3.4702,3.4694,3.4726,3.4695,3.4699,3.4731,3.4729,3.4753,3.4763,3.4767,3.4783,3.479,3.4784,3.4778,3.4774,3.4733,3.4738,3.4711,3.4702,3.4694,3.4689,3.4669,3.4658,3.4776,3.4776,3.4776,0,0,3.4661,3.468,3.4672,3.4681,3.4691,3.4681,3.4734,3.472,3.4713,3.4764,3.4743,3.4755,3.4765,3.4732,3.4719,3.4739,3.4657,3.4688,3.4682,3.468,3.4663,3.4651,3.4641,3.4773,3.4773,3.4774,0,0,3.4581,3.4595,3.4572,3.4582,3.4599,3.4621,3.4615,3.4639,3.465,3.463,3.4669,3.4659,3.4647,3.4654,3.4655,3.4582,3.461,3.4579,3.4529,3.451,3.45,3.4492,3.4466,3.4456,3.4573,3.4573,3.4573,0,3.4528,3.4517,3.4555,3.4541,3.4543,3.4593,3.4569,3.4576,3.4588,3.4588,3.4612,3.4599,3.4609,3.458,3.4562,3.4562,3.4556,3.4576,3.4499,3.4491,3.4484,3.446,3.445,3.4569,3.457,3.457,3.4571,0,3.445,3.4442,3.442,3.4436,3.4436,3.4416,3.445,3.4445,3.447,3.449,3.4468,3.4483,3.4483,3.4478,3.45,3.4452,3.4464,3.4493,3.4533,3.4468,3.4446,3.4437,3.4564,3.4565,3.4566,3.4567,0,0,3.4323,3.4363,3.4355,3.4363,3.4386,3.4379,3.4362,3.4366,3.4361,3.4368,3.4354,3.4344,3.4372,3.4374,3.4397,3.438,3.4322,3.4411,3.4412,3.4394,3.427,3.4248,3.4237,3.4342,3.434,3.4339,3.4269,0,3.425,3.4225,3.4261,3.4227,3.422,3.4268,3.4253,3.4265,3.4283,3.4278,3.4297,3.429,3.4327,3.4329,3.4314,3.4332,3.4297,3.4338,3.4327,3.4327,3.4323,3.4225,3.4202,3.4135,3.4261,3.4259,3.4258,0,3.4159,3.4167,3.4134,3.4162,3.416,3.4146,3.4153,3.4148,3.4162,3.4177,3.4181,3.4211,3.4194,3.4235,3.4213,3.4239,3.4237,3.4246,3.4244,3.4244,3.4288,3.4222,3.4115,3.4104,3.4245,3.4246,3.4247,0,3.4071,3.4072,3.4054,3.4059,3.409,3.408,3.4092,3.4109,3.4109,3.4114,3.4115,3.4117,3.4118,3.4118,3.4148,3.4174,3.4122,3.4164,3.4132,3.4132,3.4118,3.4119,3.4009,3.4117,3.4117,3.4118,3.4118,0,3.3985,3.3963,3.4015,3.4003,3.398,3.402,3.3995,3.4012,3.4027,3.4018,3.4059,3.4049,3.4089,3.4083,3.4106,3.4084,3.4084,3.4095,3.4101,3.4091,3.4089,3.4089,3.4095,3.4115,3.4116,3.4116,3.4117,0,3.3882,3.3916,3.3899,3.3931,3.3939,3.392,3.3948,3.3937,3.3959,3.3948,3.3947,3.3981,3.3976,3.4006,3.4006,3.4022,3.3989,3.4003,3.3985,3.3989,3.3956,3.3959,3.3842,3.3829,3.3945,3.3944,3.3943,0,3.3824,3.3809,3.3841,3.384,3.3852,3.3848,3.385,3.3889,3.3889,3.3906,3.3893,3.3893,3.3895,3.3885,3.3908,3.3909,3.3923,3.3883,3.3923,3.3915,3.3923,3.3924,3.3922,3.3874,3.3872,3.3871,3.387,0,3.3719,3.3737,3.374,3.3749,3.3751,3.3759,3.3769,3.3765,3.3808,3.3805,3.3803,3.3805,3.3807,3.3806,3.3812,3.3823,3.3853,3.3857,3.385,3.3839,3.383,3.3835,3.3962,3.3859,3.386,3.3861,3.3862,3.3862,3.3637,3.3627,3.3649,3.365,3.3663,3.3673,3.3666,3.3688,3.3688,3.3695,3.3718,3.3712,3.3728,3.3739,3.3747,3.3742,3.3761,3.375,3.3748,3.3744,3.3739,3.3831,3.3743,3.3743,3.3744,3.3744,3.3744,0,3.3534,3.3552,3.3553,3.3569,3.357,3.3602,3.3616,3.3614,3.3609,3.3623,3.3625,3.3623,3.3623,3.3647,3.365,3.3641,3.3655,3.364,3.3641,3.3643,3.3721,3.3727,3.3629,3.3629,3.3629,3.3629,3.3629,3.3629,3.3481,3.3465,3.3487,3.3478,3.3495,3.3492,3.3497,3.3506,3.3517,3.3514,3.3516,3.3533,3.355,3.3555,3.3556,3.3563,3.3562,3.3543,3.3554,3.3626,3.3637,3.3648,3.3654,3.3542,3.3542,3.3477,3.3476,3.3476]}]]